GFSNGP_sfc_temp_000.txt.gz
Temp
86 88 88 85 84 83 81 83 77 80 79 84 86 86 88 90 90 87 85 86 86 87 87 86 85 85 85 86 86 85 83 82 81 81 81 80 79 79 80 80 80 79 79 79
80 85 85 82 85 85 84 84 81 81 79 89 89 90 88 89 89 86 85 84 86 86 86 85 85 84 85 85 85 84 81 81 82 81 80 80 80 79 79 79 79 79 79 79
74 81 80 74 81 83 84 84 83 76 83 87 85 86 86 86 87 86 86 86 85 86 86 85 86 86 85 85 86 83 81 81 81 81 80 80 80 79 78 78 79 78 78 78
76 75 62 81 88 88 84 85 86 84 85 86 86 87 86 87 85 86 87 86 86 89 88 86 90 90 87 87 83 81 80 81 81 81 80 80 79 78 78 79 77 77 77 78
71 71 77 76 79 80 80 79 86 84 86 88 88 86 86 86 86 86 87 88 89 91 89 89 89 89 86 84 83 82 81 81 82 82 80 79 78 78 78 77 77 77 78 77
74 67 64 80 88 90 86 72 88 86 85 86 86 79 84 85 86 86 88 90 88 88 91 90 88 91 85 83 82 81 82 82 83 83 81 79 79 78 78 78 78 81 79 79
72 69 76 83 85 88 69 74 87 88 88 87 83 87 84 87 86 87 88 87 88 89 89 88 88 87 84 83 81 84 85 85 84 82 80 79 79 78 77 76 77 77 77 78
73 68 64 84 82 76 78 86 86 88 88 87 88 87 87 86 86 86 86 87 88 88 88 89 87 84 81 80 83 84 84 83 81 77 80 84 77 77 77 74 70 75 75 77
75 74 77 83 80 84 84 80 82 83 85 88 87 88 88 86 86 87 87 88 90 88 86 85 84 81 79 80 82 83 80 77 73 73 80 80 76 74 76 74 75 69 75 77
72 76 77 80 84 84 84 82 83 85 85 86 85 87 86 85 85 85 86 85 86 84 82 81 82 80 79 81 79 77 77 74 73 77 77 77 77 80 79 77 71 72 73 77
74 75 77 81 79 79 81 83 82 84 85 85 86 85 84 82 82 83 83 83 82 82 82 81 80 78 79 78 77 77 77 75 77 80 77 77 73 72 76 61 64 67 74 74
71 71 72 74 77 80 79 81 83 82 83 86 86 84 83 82 83 82 81 80 80 79 79 77 77 76 76 77 77 77 76 78 79 79 79 79 78 70 47 48 45 43 43 52
72 75 76 76 79 81 80 81 84 84 85 84 86 85 84 81 81 68 79 78 77 77 76 76 76 75 75 75 76 75 75 75 78 72 78 76 70 68 54 50 46 43 43 43
78 77 73 77 76 79 80 82 80 83 87 87 86 85 83 80 76 79 78 77 77 76 75 75 76 73 75 76 75 74 75 57 76 78 74 71 69 68 59 56 58 66 48 50
76 78 77 77 78 79 81 81 79 80 83 84 83 81 81 78 78 77 76 77 76 76 75 75 74 72 76 77 75 73 76 79 75 70 63 61 58 54 54 59 63 66 70 57
75 75 75 74 75 76 78 79 78 80 82 82 80 79 79 79 77 77 76 75 74 75 74 74 72 73 75 74 71 66 65 58 61 67 60 54 54 53 53 53 57 66 67 63
68 68 71 72 74 75 76 78 79 80 82 80 79 77 77 77 75 73 72 74 74 73 73 73 71 72 74 72 72 65 64 64 58 60 56 55 55 56 56 57 62 65 59 52
73 74 74 74 74 75 76 78 79 79 81 80 79 77 74 74 73 67 68 70 70 69 69 69 71 72 72 71 71 68 66 64 69 71 70 68 66 64 62 60 61 64 60 55
73 73 74 74 74 75 77 77 77 78 76 75 75 72 72 72 71 69 67 69 68 67 67 70 61 68 70 65 67 74 73 73 72 72 71 58 65 68 66 65 61 66 66 63
70 73 74 75 75 75 75 75 73 72 74 73 73 68 67 67 67 67 66 67 67 70 69 68 67 65 59 59 62 68 68 72 72 71 70 71 69 68 64 56 65 64 63 64
68 71 72 73 73 74 73 73 71 70 70 71 67 63 64 63 64 67 65 67 65 67 68 61 68 67 66 65 66 68 72 73 72 70 66 68 64 66 65 64 64 63 63 64
68 70 70 70 70 70 72 72 71 67 68 66 65 66 65 63 65 66 67 68 69 52 68 69 68 62 65 61 74 74 73 72 70 70 67 65 63 62 62 61 61 61 61 60
63 68 70 70 69 67 66 69 68 66 66 65 64 65 67 69 70 67 65 65 69 61 70 70 56 55 57 69 72 72 72 71 70 69 66 64 63 63 62 61 61 61 60 59
66 67 67 69 69 67 65 68 69 68 67 67 68 68 68 68 68 74 69 58 52 58 68 62 58 53 51 72 71 71 70 70 68 67 65 51 63 63 63 60 60 61 60 55
64 67 68 67 67 67 67 68 68 67 67 67 66 67 67 74 70 70 71 68 52 60 62 50 51 52 66 71 70 69 69 68 67 66 64 63 63 62 62 61 61 61 61 61
64 67 67 67 70 71 71 71 69 70 69 66 66 67 71 71 71 70 69 64 64 57 62 59 61 63 69 69 68 69 67 66 62 62 61 63 63 62 61 61 61 59 59 61
69 58 71 72 74 74 73 70 72 70 68 67 65 71 71 71 69 66 60 68 67 65 65 63 62 58 64 67 66 66 65 65 55 63 62 62 62 61 61 61 60 61 61 60

GFSNGP_sfc_temp_006.txt.gz
Temp
86 88 89 87 86 87 83 84 76 79 77 79 80 89 90 92 93 93 93 93 91 92 91 88 86 85 85 85 86 87 82 82 80 80 79 79 78 79 79 78 78 78 76 76
80 87 88 84 88 88 87 87 86 86 83 85 91 91 91 91 92 91 92 93 93 91 90 88 86 85 82 84 85 84 78 80 81 80 79 78 78 78 78 78 78 77 76 76
73 83 83 77 85 87 88 89 87 78 86 89 86 89 89 90 91 90 91 92 91 92 85 87 86 85 80 84 83 81 78 80 80 80 79 78 79 78 78 78 77 76 75 75
75 78 65 83 94 94 90 90 92 87 88 85 89 91 93 94 92 91 92 92 92 95 93 89 90 88 85 84 82 80 79 79 80 79 78 78 77 77 77 77 75 74 74 75
71 72 78 83 87 83 76 80 93 91 90 90 92 92 88 93 95 93 93 93 92 96 95 90 88 86 84 82 82 81 79 79 79 80 78 78 77 76 76 74 75 73 75 74
73 67 64 80 89 90 84 71 84 85 85 87 89 80 81 89 93 93 94 94 93 95 94 90 88 88 83 82 80 79 80 80 80 80 78 78 76 75 75 77 74 76 75 74
72 69 76 88 88 87 62 62 77 85 84 84 82 86 89 92 92 93 93 93 93 93 90 86 87 85 80 81 80 82 83 82 80 80 79 79 78 75 73 72 71 71 72 73
73 69 66 90 81 75 79 84 87 88 86 87 89 91 91 93 90 91 91 92 92 89 85 86 85 83 80 79 82 83 83 82 81 79 79 78 77 74 70 71 69 69 69 69
67 62 68 86 83 85 87 84 85 85 88 88 88 89 90 89 90 90 90 90 91 87 85 85 84 85 83 83 85 85 84 82 81 82 80 80 76 72 73 68 67 69 66 69
64 59 59 79 82 84 86 84 87 89 89 89 87 89 89 89 89 89 83 88 88 86 84 83 83 82 81 81 82 82 80 80 80 77 77 76 74 75 65 68 67 68 65 69
71 60 75 77 81 84 85 87 87 89 89 88 88 87 88 87 88 81 84 79 75 74 71 66 67 68 71 75 75 77 78 79 76 76 75 76 59 57 68 57 58 67 65 66
65 72 74 74 81 84 83 83 85 85 86 89 89 87 88 85 79 81 78 78 75 73 70 65 66 69 73 74 76 76 76 78 78 76 69 73 66 63 46 46 43 42 44 52
73 79 78 80 84 85 82 83 85 84 86 85 89 89 86 76 81 71 79 76 69 71 73 68 70 77 78 77 78 77 74 75 78 71 77 74 74 71 63 52 47 45 46 46
81 79 75 79 78 82 82 83 82 85 86 87 87 88 88 81 77 81 78 79 78 76 75 72 76 76 78 78 77 76 76 61 76 76 77 73 72 71 70 66 63 63 48 48
78 80 79 79 79 80 81 81 80 80 83 83 85 85 85 70 73 79 81 80 80 80 78 78 78 75 78 79 76 76 76 76 76 72 67 69 71 69 69 65 64 64 63 51
78 78 77 76 76 77 78 79 78 78 81 82 82 83 80 84 71 73 79 80 76 76 77 77 76 76 78 78 76 75 73 62 67 74 71 70 68 66 65 62 61 62 60 56
72 71 73 73 74 75 76 78 78 79 80 80 80 82 83 78 78 71 72 74 72 78 76 76 76 76 76 76 75 76 69 71 61 68 69 68 67 65 65 66 62 61 59 54
76 76 76 75 74 74 75 76 77 79 78 81 82 82 80 78 77 68 69 70 64 67 75 75 75 74 74 76 75 75 67 67 70 68 64 67 66 67 67 66 66 62 60 56
75 73 74 74 75 74 74 75 76 78 79 80 79 77 76 69 72 66 63 60 62 65 68 73 66 69 71 69 66 75 68 72 69 63 63 59 64 69 68 68 67 66 65 60
71 72 72 72 75 74 73 75 76 77 79 80 80 77 74 72 67 64 62 59 63 67 72 70 70 71 69 68 66 74 72 70 68 67 66 67 67 68 65 59 62 66 66 64
67 69 69 70 71 73 74 75 76 76 78 75 71 70 68 70 70 70 68 69 69 66 70 65 70 70 70 70 70 73 71 71 71 70 68 67 66 66 67 67 66 65 64 64
65 64 65 65 66 70 73 74 67 71 71 71 72 70 68 67 69 69 69 69 69 57 67 71 70 60 69 64 71 73 72 71 71 70 69 68 66 66 66 66 65 64 64 63
60 63 63 64 65 67 69 65 71 68 67 68 67 67 68 70 69 67 61 68 70 64 69 62 57 58 60 69 70 71 71 71 71 70 69 68 66 66 66 65 64 64 63 62
62 57 58 58 60 64 63 64 66 67 67 68 70 70 69 69 65 69 66 58 57 62 68 63 58 57 53 68 69 70 71 71 70 70 69 57 67 66 65 65 63 64 63 58
62 58 58 60 60 59 65 67 68 67 67 67 68 67 71 66 69 69 65 68 57 64 69 52 55 55 64 68 69 70 69 69 69 68 68 68 66 66 66 65 64 63 64 63
59 65 63 64 65 65 64 64 62 65 63 64 65 64 63 64 63 70 65 63 68 63 68 64 65 64 66 67 69 69 69 68 66 66 64 66 67 66 66 65 64 63 63 64
71 58 72 70 73 72 72 68 64 63 65 67 61 67 68 66 67 63 61 69 68 66 66 67 64 63 67 67 68 68 68 68 61 67 67 66 65 66 66 65 65 64 64 63

GFSNGP_sfc_temp_009.txt.gz
Temp
71 78 80 80 79 78 69 67 61 65 67 69 74 76 79 82 84 81 80 79 78 79 82 82 81 78 75 79 77 80 77 75 74 72 70 70 70 70 70 69 69 69 68 68
66 77 80 77 81 80 80 77 73 72 68 79 81 77 76 81 81 79 78 81 81 79 79 82 81 77 76 76 75 76 76 75 73 72 70 69 69 69 68 69 69 68 68 68
58 69 70 64 71 75 77 81 77 68 71 74 72 75 73 75 80 79 78 79 78 78 77 82 81 78 75 70 69 71 70 73 74 74 71 70 70 69 68 68 68 68 67 67
58 61 52 67 79 80 73 74 75 76 77 79 76 79 78 78 78 80 80 81 79 79 76 82 79 73 72 72 69 69 69 70 72 70 70 70 68 68 68 67 67 66 66 67
53 55 62 72 78 72 69 64 75 73 75 81 82 76 74 79 79 79 80 78 79 79 76 81 77 77 75 70 70 70 68 71 71 71 70 68 67 67 67 67 66 66 67 66
49 47 48 65 77 81 75 58 73 77 75 73 76 64 66 77 80 81 83 81 79 80 77 80 79 78 71 68 68 68 69 71 70 70 69 68 68 68 68 67 67 65 65 65
50 49 56 71 75 81 57 60 73 75 74 74 67 70 74 80 80 81 80 81 79 76 75 78 80 74 69 67 66 70 71 70 71 70 70 70 69 67 67 66 61 61 63 64
56 51 49 71 73 64 65 68 74 75 72 75 75 77 76 80 77 79 79 79 79 74 73 74 75 70 66 66 70 71 72 72 71 71 74 74 68 68 67 64 62 61 61 62
55 56 62 64 62 70 73 69 71 73 75 76 76 77 77 77 75 75 77 77 77 73 70 70 69 68 64 59 60 66 71 71 71 72 72 70 67 66 63 63 62 61 60 59
56 58 60 62 64 66 66 70 72 74 74 74 70 76 75 75 74 69 70 66 65 65 62 61 62 62 62 62 62 61 64 69 70 70 68 68 64 62 61 60 59 59 59 57
55 59 63 65 67 67 73 74 77 77 75 75 77 75 73 72 67 64 64 65 65 64 63 61 61 61 62 64 64 61 62 66 67 66 64 58 54 54 59 49 51 55 53 54
48 57 56 58 64 75 73 74 75 74 75 77 75 73 72 70 67 64 63 64 63 62 62 61 62 63 63 66 64 61 62 65 64 64 61 58 54 50 46 46 43 43 44 51
56 61 62 68 72 76 73 74 75 73 74 73 74 74 70 69 69 64 64 64 64 63 63 62 62 61 63 63 66 67 65 63 63 61 62 60 55 52 48 47 46 44 45 46
71 70 67 68 66 72 73 75 74 75 74 73 73 72 72 69 68 67 65 65 65 65 63 63 63 65 68 70 70 66 64 60 62 61 61 59 59 58 56 52 50 50 45 46
68 70 68 67 67 68 71 72 70 69 70 70 71 69 70 69 66 65 70 71 70 68 67 66 66 65 66 68 67 65 63 61 61 58 58 58 57 56 55 54 53 53 50 48
68 69 68 66 66 67 68 69 66 66 68 69 68 68 69 69 66 66 66 68 66 65 68 68 63 65 67 68 65 64 60 61 61 59 61 59 56 55 53 52 52 51 50 50
63 60 62 62 64 64 65 66 66 66 68 67 67 68 68 67 64 63 63 63 62 63 61 62 62 65 65 65 66 61 61 60 61 59 57 56 55 54 54 53 52 53 52 46
66 66 65 64 63 64 64 66 67 66 66 68 70 68 64 63 63 62 61 59 58 60 61 61 62 63 64 65 64 64 62 60 61 61 57 56 58 56 55 55 54 51 47 45
66 64 65 66 66 64 64 65 64 65 66 67 68 64 61 61 59 57 58 58 56 56 59 61 64 63 65 60 61 62 63 60 57 55 56 57 59 60 56 58 56 54 53 48
63 64 65 65 66 65 63 65 65 64 67 68 68 64 61 60 57 56 56 55 57 59 61 60 60 62 62 59 61 60 59 58 57 55 56 58 59 54 53 55 56 54 52 51
61 62 62 62 62 63 64 64 64 63 64 65 63 59 59 59 61 60 58 56 57 60 59 60 60 60 60 59 59 59 61 59 59 59 55 54 55 53 53 53 53 54 53 52
60 60 60 60 59 60 61 61 59 56 56 60 59 58 59 59 60 60 62 58 56 59 61 60 58 59 62 64 59 59 64 64 62 58 56 54 53 53 53 52 52 52 52 50
58 58 58 58 57 56 59 59 59 58 56 59 60 61 59 57 59 57 55 58 60 58 58 56 56 58 61 61 58 58 59 63 62 58 56 53 53 53 52 51 52 52 50 49
57 58 58 58 58 58 58 58 59 61 60 62 62 62 59 57 58 60 57 56 55 57 55 54 54 56 57 60 60 56 57 60 60 60 54 53 53 53 52 51 51 51 48 50
57 58 58 57 58 57 58 59 60 59 59 60 60 60 60 61 60 60 62 58 55 57 55 53 54 56 53 54 55 55 56 54 53 53 53 52 51 52 52 52 51 51 50 49
58 59 59 59 60 60 59 59 57 58 58 57 59 59 61 59 60 59 57 59 57 57 55 52 53 52 54 55 55 56 56 53 54 53 53 52 52 51 52 52 50 50 50 50
62 58 61 61 63 62 63 60 59 58 58 61 59 59 60 62 59 58 57 61 60 57 57 55 56 55 55 55 55 55 54 54 53 54 53 52 52 51 51 52 51 51 51 51

GFSNGP_sfc_temp_015.txt.gz
Temp
68 71 67 68 69 65 62 64 62 65 61 66 67 69 71 75 72 70 72 75 76 78 78 78 77 76 75 75 75 74 70 68 68 67 67 70 69 69 68 67 67 66 65 65
58 67 70 68 70 71 70 63 63 61 61 66 73 67 69 74 74 72 69 73 74 76 73 72 75 74 74 74 74 72 71 69 67 67 66 68 68 68 68 65 67 65 64 64
59 61 63 57 66 68 68 69 69 62 67 66 65 68 72 70 72 74 72 70 70 71 70 70 71 74 73 73 73 70 70 68 67 67 67 67 69 68 67 68 66 66 65 64
61 56 51 66 67 73 67 66 68 67 66 69 74 75 70 70 72 72 73 73 71 70 70 72 74 74 73 71 70 69 67 67 67 67 66 67 70 69 68 67 65 66 65 63
52 52 61 63 65 64 63 62 67 66 66 71 70 72 68 69 70 73 73 72 72 72 70 70 71 71 70 67 68 68 67 67 67 68 67 67 67 67 67 66 64 64 63 61
45 50 50 58 64 67 62 55 69 69 66 67 71 68 64 68 72 72 73 74 72 71 71 69 69 70 68 66 67 67 67 66 67 68 69 67 68 66 66 65 66 63 61 62
47 47 52 60 62 66 58 54 61 65 64 63 63 62 66 70 72 71 72 73 71 68 72 70 68 68 63 64 64 64 65 65 65 65 65 65 65 65 64 63 61 61 61 62
44 44 46 64 62 58 58 63 63 63 63 63 64 67 68 68 69 71 72 74 71 69 65 67 66 66 63 62 63 64 65 64 62 64 66 65 64 62 61 61 62 60 60 60
47 47 54 57 55 58 58 58 62 65 65 69 69 66 67 66 66 68 68 67 65 63 62 62 63 64 62 60 61 62 61 60 61 61 63 63 62 60 59 59 61 60 59 57
52 54 55 58 59 61 61 60 63 65 66 67 67 68 67 65 63 63 62 61 62 62 60 58 59 60 60 61 62 62 61 61 61 61 60 60 61 60 60 61 60 58 57 56
51 57 58 62 61 61 63 65 65 67 67 66 66 68 68 66 65 63 62 60 60 59 59 58 60 61 61 61 62 61 60 60 60 61 61 60 52 51 56 52 53 57 56 55
49 55 55 57 62 66 65 65 67 67 67 68 69 67 68 67 65 63 62 61 60 59 60 60 60 60 60 60 61 59 58 57 57 58 58 57 53 49 46 45 43 43 47 50
54 59 58 62 65 68 67 67 68 66 66 63 64 64 65 62 61 60 62 60 60 60 60 59 59 59 60 60 60 58 57 57 56 57 57 56 52 49 48 47 43 41 43 44
58 60 58 61 59 63 66 66 65 66 65 63 62 62 62 60 61 61 61 61 61 60 60 60 60 59 60 60 59 58 58 55 58 58 56 54 52 51 50 49 47 47 43 44
58 59 58 59 61 61 61 63 62 61 61 61 61 60 60 60 58 60 62 62 61 60 59 59 59 59 59 60 60 59 58 57 56 56 56 54 53 51 50 49 47 46 46 45
56 58 59 58 57 58 59 59 58 58 59 60 59 59 60 61 59 59 60 60 59 58 58 58 59 61 61 61 59 58 56 56 56 55 54 54 54 52 50 49 48 46 47 47
53 51 53 53 54 54 55 56 57 57 58 58 58 58 60 60 59 58 58 60 60 58 59 59 60 60 61 60 59 57 56 55 57 55 53 52 52 52 51 50 49 47 47 46
53 51 51 50 52 53 54 56 56 56 56 57 57 57 57 56 56 57 58 56 56 57 58 59 58 58 58 60 59 58 56 55 54 53 53 55 54 53 51 51 49 47 45 46
55 54 55 56 55 54 54 54 55 56 56 57 56 56 55 55 56 55 55 55 55 54 54 56 59 59 58 59 58 55 55 54 54 53 54 53 52 51 51 51 52 51 50 50
54 55 55 55 56 55 54 55 55 54 55 54 55 53 54 55 54 54 53 52 53 54 55 57 56 56 55 58 58 54 54 54 53 53 54 52 51 52 52 52 50 48 48 49
52 53 54 54 53 55 55 54 54 53 54 53 52 52 51 52 53 53 52 52 54 55 57 58 56 55 54 55 54 52 52 52 53 54 54 50 50 49 49 48 48 49 48 46
51 51 52 53 52 52 53 53 53 52 53 52 53 52 53 53 53 53 54 53 54 54 54 54 54 56 55 58 53 55 57 57 53 56 54 52 49 52 51 48 47 46 46 45
49 51 51 51 51 51 52 53 53 53 53 53 53 53 52 52 51 51 51 54 54 54 53 53 54 56 56 55 54 55 54 58 57 57 55 51 50 52 52 52 47 46 44 44
50 50 51 52 51 52 51 52 52 53 53 54 53 53 52 51 51 52 52 53 52 51 52 52 54 55 54 51 52 51 54 55 55 57 56 50 50 51 51 49 45 44 43 43
50 50 50 50 50 49 49 51 51 51 52 52 53 53 53 51 54 53 52 56 51 51 51 52 53 54 50 50 49 48 48 47 47 47 48 48 47 46 45 45 45 44 44 45
50 50 50 50 49 48 50 49 49 49 49 50 51 52 52 51 51 51 52 54 52 50 50 49 50 50 49 48 48 48 48 47 46 46 46 47 47 47 46 45 45 44 45 47
51 48 50 51 51 49 50 50 49 50 50 50 51 51 52 52 52 52 51 51 51 50 49 49 48 49 48 47 47 48 47 47 46 47 46 46 46 46 46 46 45 45 44 44

GFSNGP_sfc_temp_021.txt.gz
Temp
72 76 76 74 74 74 71 74 70 75 71 81 85 86 86 89 87 81 80 82 82 83 84 83 83 83 84 85 86 87 82 80 77 73 74 73 72 70 67 67 71 71 70 71
66 74 74 72 76 77 75 76 74 78 75 85 88 85 82 84 85 82 81 82 83 83 83 82 82 82 83 83 84 84 80 78 76 73 73 73 73 72 70 67 68 70 69 70
61 71 70 64 73 75 76 78 75 71 78 86 80 80 82 83 84 83 83 84 83 83 82 82 83 83 82 82 83 80 79 77 73 73 73 73 74 71 71 69 70 71 71 71
63 64 52 72 82 82 78 79 80 82 81 82 84 86 85 85 85 84 86 86 85 85 85 84 86 85 83 83 80 78 77 75 74 73 73 74 73 71 71 71 71 73 73 73
60 61 67 68 71 74 74 74 80 78 81 81 81 81 81 80 83 84 83 82 83 87 86 83 84 83 81 80 79 78 76 74 74 74 73 72 71 71 72 70 72 73 74 73
57 56 55 69 66 69 70 67 75 73 76 77 78 76 82 78 82 83 85 83 82 83 84 84 82 83 80 78 77 76 76 75 75 74 73 72 72 71 72 71 71 76 74 73
53 55 64 63 65 69 62 69 69 71 75 75 75 74 74 78 79 82 81 80 82 83 82 80 81 80 78 77 76 78 78 76 74 74 73 73 71 71 70 70 72 72 72 71
55 52 55 65 67 63 66 69 72 73 73 71 73 74 76 76 76 77 78 80 81 77 76 77 78 79 76 76 77 76 73 73 72 72 73 73 71 71 71 70 70 69 68 65
51 56 63 65 64 67 70 69 71 73 76 76 75 75 76 75 75 76 75 76 79 78 75 75 76 76 74 68 71 73 74 72 70 71 71 71 69 70 69 69 70 68 64 67
57 60 62 65 68 70 71 69 71 73 73 76 71 76 75 75 74 74 74 74 77 77 75 72 73 70 72 72 73 73 72 71 72 71 70 70 71 73 71 71 70 69 67 70
54 54 61 64 66 68 69 70 70 71 72 73 72 69 70 71 72 73 73 71 71 71 71 68 70 70 71 70 69 72 72 72 71 70 69 64 60 61 69 67 64 71 70 67
53 58 58 61 63 66 65 65 67 69 69 72 73 71 72 70 71 72 71 70 71 70 71 68 67 69 70 70 70 71 70 71 71 71 69 65 63 60 45 45 44 45 46 61
58 60 61 65 67 67 65 66 67 67 67 67 68 70 70 68 67 63 70 69 68 70 70 70 71 71 70 70 72 71 71 70 72 70 67 63 62 65 64 53 43 42 43 45
62 64 59 65 59 66 68 67 67 68 68 67 67 68 69 69 69 69 69 70 71 69 69 70 71 71 70 72 71 71 70 57 72 72 72 65 63 67 68 66 64 62 46 50
57 61 59 61 66 65 65 66 64 64 66 67 68 68 69 69 68 68 70 70 71 72 71 70 71 70 71 71 71 71 73 73 72 73 72 66 66 66 69 67 66 64 62 53
56 56 56 58 59 61 64 65 63 63 66 66 66 66 67 69 70 69 69 69 70 71 69 68 69 71 72 72 71 72 70 62 65 71 67 67 67 67 68 67 65 66 66 66
57 57 59 58 59 60 62 64 64 64 65 65 65 66 67 68 69 70 68 68 68 69 69 69 69 70 70 70 70 71 74 73 64 72 71 71 70 69 69 68 68 67 68 65
61 61 62 62 62 63 63 64 65 65 64 65 66 66 66 66 65 65 65 66 67 67 66 67 67 68 69 70 70 72 74 71 73 74 72 70 70 70 69 70 69 69 68 63
62 61 61 61 63 63 64 64 64 65 64 65 65 64 64 64 64 60 63 66 65 65 63 66 61 66 69 68 69 74 74 70 70 69 69 61 67 70 69 68 66 65 68 67
62 63 64 64 64 63 63 64 65 65 65 65 65 64 62 59 61 63 65 63 64 65 66 67 68 69 69 66 64 73 73 72 70 68 66 67 67 66 68 60 64 64 69 68
62 63 63 63 63 64 64 64 64 64 65 65 63 62 63 63 65 65 65 67 65 66 67 63 71 69 70 70 73 74 72 71 71 69 67 67 66 69 69 67 64 70 70 69
61 61 62 62 63 64 64 64 64 64 64 64 64 64 64 64 65 66 64 66 67 54 67 72 71 61 68 64 74 74 73 72 72 71 70 69 68 69 69 69 71 71 71 70
60 61 62 62 61 61 63 64 64 64 64 64 63 64 65 66 68 68 67 65 71 61 71 72 60 56 56 72 73 73 73 73 73 73 73 70 68 67 68 65 62 64 67 65
59 60 60 61 62 62 62 63 63 63 63 64 65 65 65 67 69 71 70 60 53 58 70 67 62 54 55 72 72 72 72 73 72 72 71 54 70 69 66 60 64 67 64 61
60 61 61 62 62 63 61 62 63 64 63 64 65 67 66 69 67 69 70 71 54 60 71 53 54 53 70 71 71 71 70 70 70 70 69 68 69 67 66 65 65 64 65 69
61 63 63 62 64 66 67 66 67 68 67 67 69 70 71 70 70 68 70 62 70 62 71 72 71 69 71 70 70 70 70 70 68 69 66 68 69 69 70 69 69 68 69 69
63 52 64 65 66 65 66 65 66 68 66 67 66 69 68 69 69 64 60 70 71 71 71 71 71 65 71 71 71 70 70 70 62 70 69 69 69 69 70 70 70 70 70 70

GFSNGP_sfc_temp_024.txt.gz
Temp
78 82 83 81 79 80 78 80 75 80 80 86 91 93 95 99 100 100 96 93 93 94 95 94 93 93 92 95 95 97 93 92 88 85 83 82 83 81 81 80 79 77 73 75
72 80 80 78 81 82 81 81 81 82 81 93 96 96 95 97 99 98 97 94 93 92 94 92 92 91 92 92 93 93 91 90 87 84 81 82 81 79 78 79 76 76 76 77
66 76 77 71 79 81 82 84 83 76 84 91 90 92 93 95 97 97 99 97 95 93 93 92 93 92 91 90 92 89 89 87 85 83 80 80 81 79 78 76 78 78 76 77
68 72 59 78 89 87 83 85 88 87 88 91 91 95 97 99 97 98 99 101 99 99 96 94 96 94 92 92 89 87 86 85 84 82 80 80 79 78 77 77 77 76 77 77
65 67 73 78 82 80 80 79 88 88 89 92 95 95 91 96 98 97 98 100 100 101 99 94 94 92 90 89 88 86 84 84 83 82 80 79 78 78 78 77 76 75 76 76
69 62 59 69 75 78 78 70 89 90 88 91 92 83 88 97 93 94 96 97 94 96 96 94 93 93 88 87 85 84 85 84 84 83 81 79 77 77 77 78 74 78 76 77
66 65 71 70 74 78 65 71 78 91 91 91 87 91 87 88 89 92 92 93 94 93 91 90 91 90 86 86 85 87 88 85 83 82 79 77 77 77 77 76 74 75 76 75
70 63 60 71 74 70 70 78 80 82 84 87 90 84 85 86 86 87 87 88 90 87 86 87 87 87 85 84 85 86 85 83 81 79 79 77 75 74 73 71 70 72 74 71
68 69 69 72 69 74 76 75 79 81 83 84 84 84 85 84 85 86 87 87 88 85 82 84 85 85 81 80 82 82 82 79 77 75 76 76 73 72 70 70 70 69 70 69
65 65 68 72 72 75 78 77 79 83 85 86 83 84 84 84 85 85 86 87 88 85 83 80 81 82 80 80 80 79 77 75 74 72 71 72 73 72 71 68 67 67 69 72
65 65 66 67 70 74 74 78 79 82 82 81 81 81 81 80 81 82 81 83 84 84 82 80 80 79 80 78 79 76 76 76 72 70 69 66 63 63 71 65 65 73 76 74
66 69 67 63 66 70 68 72 74 74 76 80 81 80 81 79 79 78 76 80 79 79 79 77 78 76 76 79 78 78 77 76 77 77 78 79 75 69 45 47 45 46 48 65
65 68 65 63 61 68 66 68 71 75 77 75 78 79 79 76 76 71 79 78 77 76 78 79 77 76 79 75 78 79 80 79 80 78 80 78 78 77 74 57 44 43 43 45
68 66 57 56 53 61 68 71 69 71 72 76 77 77 76 76 76 76 76 77 77 77 77 79 78 76 79 80 78 78 79 62 81 81 80 79 78 78 79 74 72 68 48 54
58 61 57 59 58 58 69 70 69 70 70 70 71 73 75 74 71 72 76 78 79 80 78 79 77 75 79 79 78 78 80 81 81 81 80 76 79 79 79 77 75 72 66 57
53 54 57 58 58 61 66 67 69 66 69 70 70 69 70 70 73 75 76 78 80 78 77 78 77 77 79 79 78 79 78 65 73 81 78 78 78 78 78 76 75 74 74 73
51 51 53 54 60 63 65 68 69 70 68 68 68 70 73 75 75 74 76 76 76 76 77 76 77 77 78 79 79 82 83 78 69 81 80 80 79 79 79 78 77 76 76 74
63 62 61 63 63 67 68 70 72 71 70 72 73 73 71 70 70 71 73 76 74 72 73 75 76 77 77 79 80 82 83 82 82 82 81 79 79 79 78 78 78 77 76 68
68 65 67 69 68 69 70 71 71 71 72 73 73 70 69 69 68 65 73 74 69 67 70 74 63 73 77 72 75 83 84 83 82 82 81 69 76 79 79 78 77 77 76 74
69 69 68 68 70 70 69 72 72 71 72 73 72 71 69 69 71 72 72 69 71 73 74 73 75 76 76 71 68 86 83 82 81 79 77 78 78 77 77 66 75 74 75 74
70 70 70 69 69 70 71 72 72 70 71 72 70 69 69 70 72 74 73 71 71 72 74 67 77 78 78 76 76 85 83 81 79 79 77 76 77 76 76 74 74 75 74 72
70 70 70 70 70 69 71 72 72 71 70 70 70 71 71 70 72 71 72 73 75 54 75 78 77 63 73 64 85 84 84 82 80 79 78 75 75 75 74 73 75 72 73 76
69 70 71 70 69 70 72 71 72 71 70 70 69 70 71 73 75 71 68 72 78 67 79 77 60 58 60 78 82 81 81 80 80 80 80 77 76 74 73 75 74 75 78 76
68 69 69 70 72 71 69 70 71 71 71 71 71 71 72 74 72 77 75 62 58 63 73 70 65 56 52 81 81 80 78 78 78 78 78 56 76 77 76 74 75 74 68 65
68 69 70 70 70 71 70 71 73 73 72 72 73 74 74 76 74 75 76 77 56 63 77 53 55 55 74 78 78 78 78 77 77 77 77 75 75 76 76 76 76 76 75 76
66 69 70 69 70 73 74 75 74 75 74 73 74 76 78 79 79 76 78 67 77 67 77 79 77 73 76 78 78 77 76 77 74 75 73 75 76 75 76 76 76 76 75 76
69 60 71 72 73 73 72 71 72 72 72 72 72 76 75 76 75 71 65 76 77 78 78 78 79 73 78 78 78 77 77 77 68 76 76 76 76 76 76 76 76 76 76 76

GFSNGP_sfc_temp_030.txt.gz
Temp
81 82 84 83 83 83 80 81 75 81 82 87 91 91 93 94 98 99 99 100 96 100 99 98 96 92 93 94 93 94 90 88 87 86 85 85 84 84 84 84 82 80 79 78
73 83 82 80 84 85 85 83 83 84 83 95 96 98 93 93 93 96 97 98 99 96 97 96 96 93 92 93 93 92 89 88 87 86 85 85 84 84 83 83 81 79 78 77
66 77 78 72 80 83 84 87 84 78 85 93 91 91 94 94 93 96 97 97 99 97 94 94 97 94 92 92 93 91 88 88 87 86 84 84 84 83 82 80 80 78 77 77
68 71 60 79 89 89 85 87 90 89 89 91 92 95 94 94 96 93 99 100 100 103 100 98 102 101 95 95 91 89 88 88 87 86 85 84 83 82 81 81 78 77 77 76
65 66 72 78 84 84 82 81 91 89 91 93 96 96 92 98 99 98 98 100 100 105 105 98 98 97 93 92 91 90 88 88 88 87 84 83 81 81 80 78 77 76 77 76
67 62 59 76 86 93 91 74 91 92 91 91 92 82 88 96 100 100 101 101 101 102 104 105 97 100 92 91 89 88 89 89 88 86 84 82 81 80 81 80 77 77 76 75
66 64 70 83 88 91 69 72 85 88 88 89 85 88 90 95 97 100 99 99 100 100 99 98 96 96 89 89 87 89 90 89 87 85 83 83 80 79 78 77 76 74 73 73
66 63 60 87 85 76 78 83 84 86 87 86 88 91 92 94 97 97 95 98 101 98 96 95 93 90 87 85 87 87 87 86 84 83 84 83 78 77 75 73 73 72 71 71
68 70 71 73 79 82 84 82 83 85 88 89 89 90 93 91 91 92 93 94 96 97 91 91 91 87 85 84 85 85 84 82 81 81 80 78 76 75 72 73 71 69 70 70
69 74 78 79 81 85 85 83 86 89 90 91 89 91 91 90 90 91 91 91 92 89 87 85 86 87 84 84 83 82 81 80 80 78 75 75 74 75 73 71 70 70 71 72
64 75 77 79 82 83 85 86 85 85 86 85 82 82 83 82 84 88 87 86 87 84 83 84 84 83 84 83 82 80 80 77 75 75 73 66 60 58 71 64 64 72 73 74
56 56 58 73 79 82 80 80 82 80 78 79 81 80 80 79 80 79 79 82 80 77 76 77 80 79 79 81 81 78 75 76 74 71 71 68 66 62 47 48 46 46 50 67
53 58 55 72 75 80 78 80 81 80 81 78 79 79 76 76 71 69 74 76 77 77 78 78 79 80 81 81 80 76 74 75 75 75 76 73 72 69 63 54 47 45 45 50
57 58 55 58 67 75 76 78 76 81 82 81 80 81 79 76 78 77 77 78 77 76 75 77 78 78 79 79 80 79 78 65 77 78 78 78 76 73 69 65 66 63 49 51
58 62 62 64 67 67 70 74 73 74 76 76 78 78 78 76 75 76 80 82 79 80 79 80 78 77 81 83 80 80 81 82 78 80 80 78 79 78 77 74 71 65 61 56
60 64 65 64 64 63 62 64 64 68 71 71 73 74 76 75 75 76 78 79 79 75 78 76 77 79 80 80 79 82 80 71 77 81 80 80 80 80 80 76 71 68 68 65
56 56 61 62 62 63 59 58 56 58 64 70 71 74 75 74 73 72 74 77 76 75 76 74 75 78 80 81 82 81 78 77 68 80 80 80 80 80 81 78 74 74 73 69
55 57 59 59 60 61 62 61 60 60 59 65 71 70 71 72 69 71 73 71 72 71 71 71 72 73 74 78 77 78 80 80 82 83 81 79 79 80 79 80 79 75 71 65
63 63 64 63 62 60 62 64 68 67 64 67 70 70 71 70 69 69 70 68 69 67 69 69 66 69 74 67 66 68 76 78 74 74 75 66 69 62 76 71 65 72 71 69
64 64 64 65 67 66 65 64 65 67 67 67 68 67 67 70 69 68 69 65 66 66 72 72 72 76 77 72 71 76 81 79 74 68 64 71 74 65 73 64 73 73 70 70
66 69 69 66 64 65 66 67 67 65 67 68 67 67 66 67 69 71 70 70 71 71 74 69 71 71 78 75 77 83 76 71 77 71 69 69 69 72 77 76 76 73 67 69
71 70 68 68 69 67 66 66 66 66 65 65 67 68 67 68 67 68 71 73 74 61 73 76 73 64 69 65 79 82 78 77 77 78 71 72 74 73 71 72 69 73 69 69
66 68 66 68 66 67 70 70 69 68 66 67 69 64 62 65 65 69 67 72 74 65 72 70 64 62 60 75 80 81 80 81 80 77 77 77 75 74 71 72 69 67 66 74
64 62 67 64 69 70 68 70 70 72 72 72 73 73 72 68 69 76 74 66 64 66 73 71 68 61 56 76 79 80 79 79 80 80 80 63 79 78 77 75 74 73 74 69
62 67 65 63 65 67 68 69 70 68 70 72 72 74 75 77 74 75 76 75 60 67 76 59 58 59 72 77 79 80 79 79 79 78 77 76 78 78 77 77 78 77 75 75
66 68 71 70 71 73 73 69 70 71 71 69 72 72 74 70 73 72 72 66 77 71 71 70 73 72 75 75 76 78 79 78 76 77 76 77 77 77 77 77 76 77 78 77
71 62 72 71 72 72 72 70 71 71 71 72 71 74 75 76 75 73 66 76 69 69 72 69 66 67 69 71 74 76 71 68 60 68 74 76 77 78 78 78 77 77 78 78

GFSNGP_sfc_temp_033.txt.gz
Temp
73 75 75 75 75 77 73 73 64 68 68 73 79 78 80 82 83 87 86 85 83 91 90 90 89 87 88 88 88 87 84 83 82 82 82 82 81 80 81 79 80 77 75 74
64 75 76 73 77 77 78 77 75 74 71 74 78 83 81 83 90 82 86 87 84 84 87 87 87 86 87 87 88 88 85 83 83 82 81 81 80 80 79 80 79 76 74 73
56 67 65 60 73 75 76 79 77 69 74 77 77 77 82 83 83 92 90 86 85 84 84 83 87 89 87 87 89 87 86 84 83 82 81 80 80 80 78 79 78 75 74 73
53 59 51 64 78 81 77 78 78 78 77 77 77 78 80 81 85 82 85 89 85 89 83 82 83 89 90 89 87 85 84 83 83 82 81 80 80 79 79 80 75 74 74 74
53 54 58 68 74 72 69 71 78 75 78 80 81 79 78 84 86 86 91 88 86 84 87 86 84 88 87 87 85 85 82 82 82 82 81 80 80 79 78 76 76 74 71 70
51 50 51 62 76 83 78 60 75 77 77 78 77 65 67 75 81 82 85 87 86 88 87 83 83 87 86 86 85 83 85 83 84 83 82 80 80 78 76 75 74 72 71 72
52 51 57 69 80 84 62 62 73 76 74 74 70 71 76 77 80 79 80 84 86 85 85 81 81 86 84 85 85 85 85 82 82 83 81 80 78 78 76 73 72 71 71 72
55 50 49 72 75 66 66 72 74 75 75 74 75 78 79 78 78 79 79 81 81 79 80 82 79 84 82 82 83 80 81 81 79 79 80 78 76 74 73 73 71 69 69 67
54 56 64 68 69 69 71 71 73 73 75 77 76 74 77 75 77 80 80 80 81 78 76 77 77 82 81 77 81 81 79 78 78 78 77 76 72 71 70 69 68 66 67 66
53 56 56 71 67 68 76 76 78 75 75 76 72 74 72 74 74 76 76 76 76 75 74 75 76 77 78 79 80 79 76 76 73 73 72 71 70 71 70 70 69 67 67 66
52 55 57 64 59 71 76 76 74 75 76 74 73 71 71 70 71 73 73 74 74 74 74 74 76 76 78 79 78 76 75 71 70 69 64 59 56 63 67 60 64 69 68 67
47 53 54 55 57 61 69 71 71 71 71 73 72 71 71 69 70 71 71 71 71 72 73 73 75 75 75 74 73 71 69 69 66 65 63 61 60 55 47 48 46 48 51 60
53 57 55 57 58 59 60 69 72 72 72 70 71 71 70 67 68 65 69 69 69 69 70 70 70 69 73 72 70 70 69 67 66 65 66 64 62 60 56 53 47 45 45 48
58 59 54 54 53 57 62 71 70 71 70 70 71 70 69 67 68 69 68 70 69 69 69 71 71 69 71 71 73 70 70 64 72 70 69 67 65 62 60 58 57 54 46 47
55 57 54 55 57 56 59 65 64 65 67 67 68 67 67 64 64 65 70 71 71 69 69 71 71 70 71 73 73 72 72 72 71 72 71 68 68 64 62 62 57 52 50 49
54 56 58 57 56 57 57 58 60 62 64 63 64 64 65 65 64 65 68 68 66 65 68 70 69 68 69 68 70 69 68 67 67 70 70 70 68 65 65 62 57 55 54 52
53 53 56 56 57 57 57 58 57 58 60 60 62 64 65 64 63 64 65 66 68 66 66 67 67 72 70 68 68 67 68 67 67 67 67 68 68 69 70 65 62 59 59 57
52 54 55 56 57 58 59 60 59 58 58 61 64 64 63 62 60 63 64 65 65 65 64 64 65 66 65 64 65 66 67 66 67 70 70 68 69 67 70 68 65 64 61 57
56 57 59 61 61 59 59 60 61 60 61 62 62 63 64 62 62 65 65 65 64 63 63 64 65 64 64 65 64 63 63 64 66 67 65 62 61 61 63 61 62 62 64 60
59 62 62 63 64 61 59 60 59 60 62 62 61 61 61 63 63 62 62 61 63 63 65 65 66 64 64 66 67 63 63 64 63 62 61 60 61 62 62 59 63 64 62 61
62 64 64 63 61 62 63 63 63 61 62 64 63 60 59 62 64 62 60 57 60 62 60 61 60 60 60 63 63 63 64 63 64 62 61 61 62 63 63 65 64 63 60 61
64 63 64 63 62 62 64 64 64 64 63 62 63 62 61 61 64 65 64 62 62 62 65 61 60 60 61 65 64 66 67 66 65 67 66 64 62 62 64 62 64 65 61 60
61 61 61 61 62 62 63 63 63 63 62 63 63 63 61 60 62 61 60 63 63 62 64 64 61 59 60 64 64 69 71 71 69 68 65 63 62 63 62 61 61 63 62 60
60 61 61 63 64 63 62 62 62 63 64 64 65 65 62 61 61 63 62 61 60 62 62 62 62 60 58 62 64 65 66 66 65 64 63 59 62 62 62 61 60 60 60 59
61 62 64 63 61 61 60 63 64 64 65 62 64 63 65 65 63 63 65 65 60 61 63 59 59 59 60 62 66 64 63 63 63 63 62 62 61 61 61 61 63 62 63 63
59 61 63 60 62 63 64 64 62 62 63 62 63 64 64 65 64 64 64 62 66 63 65 64 61 62 62 63 66 65 63 62 62 61 61 61 62 61 62 62 62 62 65 66
61 58 62 61 62 62 62 59 60 60 59 59 59 62 64 65 64 63 61 63 64 62 65 62 61 61 62 60 60 61 61 61 54 60 62 61 60 59 61 58 58 58 56 55

GFSNGP_sfc_temp_036.txt.gz
Temp
58 70 71 68 69 72 67 70 65 62 61 67 70 72 74 77 80 84 86 83 88 90 90 90 87 86 86 86 84 84 81 80 80 80 80 80 79 79 79 79 79 76 75 74
54 65 72 69 72 73 71 73 71 64 64 71 76 72 74 77 80 82 82 82 83 88 92 90 88 86 86 86 84 84 81 80 81 80 79 79 79 78 78 77 78 74 74 73
43 61 67 61 70 70 70 71 70 62 66 70 71 73 75 74 77 79 85 80 79 80 90 90 89 88 85 85 86 83 82 81 81 80 78 78 79 78 76 77 76 72 72 72
43 49 49 66 77 79 70 72 71 71 72 76 76 77 76 77 78 78 82 83 80 81 85 89 90 88 87 86 84 82 81 81 81 79 79 79 78 77 76 77 76 73 72 72
41 43 55 64 68 68 67 68 73 72 73 75 77 73 69 76 77 79 81 82 83 82 85 84 82 87 85 83 83 82 81 81 81 80 79 78 77 77 77 77 76 74 72 72
48 43 45 57 71 76 73 57 71 73 72 74 70 70 65 72 77 79 81 80 80 80 80 80 86 87 85 82 82 81 82 82 81 81 79 78 78 78 78 77 75 73 72 73
50 48 52 65 75 74 58 58 68 71 71 69 67 67 73 76 75 74 78 79 81 78 81 84 83 82 82 82 81 84 84 83 82 81 80 80 79 79 76 76 73 72 71 70
50 47 45 62 63 62 63 65 68 70 67 69 70 71 72 73 73 74 75 77 76 77 77 76 77 83 81 80 84 84 83 81 80 80 81 80 79 76 75 74 72 70 67 67
49 48 54 57 53 58 67 67 67 70 71 73 73 71 71 71 73 74 76 76 75 75 74 74 72 81 80 82 83 79 81 80 79 80 80 79 76 74 73 72 69 68 67 66
53 55 54 57 56 57 60 67 69 69 70 70 68 68 67 68 69 70 71 72 72 73 73 73 72 74 81 77 78 80 80 77 77 77 75 75 75 73 71 70 68 67 67 66
50 53 55 57 55 56 65 70 70 70 70 68 67 65 67 67 68 69 70 70 71 70 70 70 71 72 73 76 78 75 75 74 73 72 72 66 60 65 69 65 66 67 67 67
46 51 52 53 56 59 61 63 65 67 67 68 66 65 67 65 65 67 68 69 69 69 70 70 71 71 73 75 74 73 71 68 66 65 63 61 60 56 49 50 51 49 54 61
51 56 55 55 57 58 59 61 65 63 64 63 65 65 65 64 65 64 67 67 68 68 68 69 68 69 69 70 70 70 67 66 64 63 62 61 60 58 56 51 46 46 45 48
57 57 55 55 53 58 59 62 63 63 63 63 63 63 63 62 63 65 66 66 67 67 67 67 68 67 68 68 68 67 66 60 65 63 62 61 60 59 61 62 58 52 47 46
54 56 56 56 55 56 58 60 58 59 60 61 62 62 63 62 61 62 65 67 67 67 66 66 66 67 68 68 68 67 67 66 65 64 64 61 61 59 60 59 55 51 51 48
54 54 54 53 53 55 57 57 57 56 57 61 60 61 62 63 63 63 64 65 65 64 64 65 65 65 67 66 66 67 66 63 66 66 63 62 61 61 59 56 55 55 55 51
52 50 53 53 54 54 54 55 56 56 57 61 60 61 64 63 63 62 62 64 63 62 63 63 63 65 65 65 63 63 65 64 62 65 66 64 63 61 59 57 54 54 54 53
54 54 55 55 56 57 57 57 58 58 57 59 62 60 60 59 59 59 60 60 61 60 59 61 63 63 63 64 65 65 65 62 61 62 62 65 64 64 61 59 58 58 55 53
55 55 56 57 57 57 57 58 59 60 61 60 59 61 62 61 59 58 59 62 60 59 58 59 62 61 61 62 61 61 63 64 64 63 61 59 59 60 61 63 60 58 58 56
55 56 58 58 60 58 57 60 60 60 61 61 60 60 60 60 60 59 57 56 56 55 55 58 59 57 59 63 62 61 61 62 61 61 60 61 61 61 60 57 60 62 59 58
59 59 59 58 58 60 59 59 58 59 60 61 59 57 55 59 60 59 58 56 57 58 58 59 58 58 59 61 60 60 61 62 61 60 60 59 60 60 59 62 63 63 61 59
60 59 60 60 61 59 61 61 60 59 59 59 58 60 59 56 58 59 59 59 57 57 59 57 57 59 60 64 64 63 64 62 62 61 61 60 59 61 59 58 58 58 61 61
61 60 59 58 57 57 58 58 59 61 61 61 61 59 58 59 60 60 58 60 60 58 61 60 58 58 59 66 65 65 65 62 60 63 61 58 59 59 60 58 58 59 57 59
61 61 59 61 63 60 58 59 58 60 61 62 62 61 61 60 60 57 58 57 58 59 61 62 59 57 57 60 61 63 62 63 63 63 60 55 58 58 58 57 57 58 58 59
59 60 59 58 56 56 58 56 61 60 59 61 61 62 62 62 58 57 59 60 57 59 58 55 56 56 58 59 62 61 59 58 59 61 61 61 61 56 56 57 57 56 56 56
55 54 55 52 54 55 56 55 53 56 58 57 60 61 62 62 62 62 62 57 59 58 59 58 58 58 57 58 58 57 56 56 56 55 55 55 57 57 57 56 55 52 52 51
55 52 55 56 57 53 53 54 54 51 51 53 54 54 55 58 58 59 58 60 58 58 60 60 59 58 59 56 56 55 56 55 50 55 54 54 54 53 52 52 51 50 49 49